Regional Weather Roundup
Issued by NWS Binghamton, NY

Home | Current Version | Previous Version | Text Only | Print | Product List | Glossary On
Versions: 1 2 3 4 5 6 7 8 9 10 11 12 13 14 15 16 17 18 19 20 21 22 23 24 25 26 27 28 29 30 31 32 33 34 35 36 37 38 39 40 41 42 43 44 45 46 47 48 49 50
000
ASUS41 KBGM 222210
RWRBGM

REGIONAL WEATHER ROUNDUP
NATIONAL WEATHER SERVICE BINGHAMTON NY
600 PM EDT MON MAY 22 2017

Note: "fair" indicates few or no clouds below 12,000 feet with no
significant weather and/or obstructions to visibility.

* = Station(s) that does not report precipitation, such as rain,
snow, etc, also no thunder or fog.

NYZ009-015>018-022>025-036-037-044>046-055>057-062-222300
...Central New York...

CITY           SKY/WX    TMP DP  RH WIND       PRES   REMARKS
Binghamton     CLOUDY    62  56  80 S7        29.93S
Cortland       CLOUDY    64  59  82 W6        29.92R
Dansville      CLOUDY    64  46  52 NW14      29.95F
Elmira         CLOUDY    71  56  58 NW5       29.90R
Seneca Falls   PTCLDY    66  50  55 NW15      29.94S
Ithaca         CLOUDY    64  55  72 NW15      29.94R
Hamilton       MOSUNNY   63  55  77 S7        29.92S
Hornell        MOSUNNY   63  48  59 NW9       29.98F
Monticello     CLOUDY    55  54  94 CALM      30.00S
Norwich        CLOUDY    61  57  88 S10       29.94F
Oneonta        CLOUDY    55  48  76 SW3       29.95S
Penn Yan       CLOUDY    64  49  57 SW7       29.94R
Rome           CLOUDY    60  57  89 NW7       29.93R
Sidney         MOSUNNY   59  59 100 S6        29.94F
Syracuse       PTSUNNY   61  50  67 NW12      29.93R
$$

PAZ038>040-043-044-047-048-072-222300
...Northeast Pennsylvania...

CITY           SKY/WX    TMP DP  RH WIND       PRES   REMARKS
Hazleton       CLOUDY    61  54  77 CALM      30.01R
Scranton       CLOUDY    63  56  78 S5        29.95F
$$
&&
KEY
WCI = Wind Chill Index
VSB = Visibility
HX  = Heat Index
$$



USA.gov is the U.S. government's official web portal to all federal, state and local government web resources and services.